Weather in Belaya Krinica

Ukraine / Kherson District     47°20′44″N   33°11′28″E
temp.,
°C
wind,
m/s
gust,
m/s
humid.,
%
clouds,
%
prec.,
mm/h
press.,
hPa
HPBL,
m
22 january, sat
sat2223:00−3wsw512645 0.0 1013346
02:00−4wsw511725 0.0 1012318
05:00−5wsw410805 0.0 1012276
08:00−5wsw4107828 0.0 1013260
11:00−2wsw57645 0.0 1014634
14:000wsw565998 0.0 10131092
17:00−2w227379 0.0 101518
20:00−3wnw227921 0.0 101611
23 january, sun
sun2323:00−4w22805 0.0 101711
02:00−5nw22845 0.0 101713
05:00−5nw22895 0.0 101712
08:00−6nnw229123 0.0 101841
11:00−3nne3375100 0.0 1019320
14:00−1ne456257 0.0 1019924
17:00−3nne4878100 0.0 1021295
20:00−4nne61085100 0.0 1022420
24 january, mon
mon2423:00−4nne61285100 0.0 1023454
02:00−4n71481100 0.0 1022533
05:00−5n71393100 0.9 1022636
08:00−5n71291100 1.5 1023577
11:00−3nne7983100 0.3 1023590
14:00−2nne5890100 0.6 1023583
17:00−3n599682 0.4 1024376
20:00−4n589689 0.6 1025313
25 january, tue
tue2523:00−4n479599 0.1 1025297
02:00−5n3595100 0.5 1025264
05:00−5nnw4694100 0.3 1025272
08:00−5nw3593100 0.6 1025264
11:00−5wnw3392100 0.8 1026354
14:00−4wnw3493100 1.8 1025419
17:00−5wnw2496100 0.5 1024307
20:00−6wnw239771 0.8 102491
26 january, wed
wed2623:00−7wnw239771 0.1 102457
02:00−9wnw229877 0.1 102338
05:00−10w119981 0.0 102110
08:00−8ssw229773 0.0 102152
11:00−5sw2387100 0.0 1021358
14:00−3wsw237987 0.0 1019556
17:00−7ssw1190100 0.0 101910
20:00−6sse1194100 0.1 101932